Location: ?????????
(54.9192°N, 39.1861°E)
Time: 22:37:18
(UTC+00:00)

Daily predictions for brighter satellites

Satellite Brightness Start Highest point End
(mag) Time Altitude Azimuth Time Altitude Azimuth Time Altitude Azimuth
ARIANE 5 R/B 3.2 13:34:13 10° ESE 13:38:39 31° ENE 13:43:09 10° N
Cosmos 2208 Rocket 4.1 13:34:18 10° NNW 13:39:24 56° ENE 13:44:29 10° SE
ATLAS CENTAUR R/B 0.6 13:36:37 10° NW 13:39:56 78° NE 13:43:07 10° SE
H-2A R/B 4.0 13:38:03 10° N 13:41:20 28° WNW 13:44:31 10° WSW
Meteor 2-1 Rocket 4.4 13:36:17 10° S 13:42:13 86° ESE 13:48:04 10° NNE
Cosmos 1758 Rocket 4.0 13:39:00 10° N 13:43:05 38° ENE 13:47:05 10° SE
Cosmos 1844 Rocket 4.3 13:39:54 10° NNW 13:43:28 17° N 13:47:02 10° NE
NOSS 3-2 (A) 4.1 13:39:11 10° S 13:43:41 32° ESE 13:48:56 10° ENE
Lacrosse 4 Rocket 1.4 13:39:42 10° SSW 13:43:43 63° SE 13:47:42 10° NE
SL-16 R/B 2.9 13:39:02 10° NNE 13:45:01 45° E 13:50:55 10° S
CZ-2D R/B 4.1 13:46:06 10° ESE 13:48:25 19° ENE 13:50:43 10° NNE
Cosmos 2098 Rocket 4.2 13:46:10 10° SE 13:49:37 24° E 13:53:32 10° NNE
Cosmos 968 Rocket 4.3 13:44:49 10° SW 13:49:53 50° NW 13:55:01 10° NNE
Cosmos 1315 Rocket 3.0 13:46:28 10° S 13:50:11 49° E 13:53:54 10° NNE
Cosmos 2151 3.8 13:46:34 10° N 13:50:12 28° ENE 13:53:50 10° SE
Cosmos 2263 Rocket 3.1 13:46:32 10° NNW 13:51:26 29° NE 13:56:20 10° E
Okean 1 Rocket 3.7 13:47:29 10° SSW 13:51:45 57° WNW 13:56:01 10° N
Cosmos 1733 2.5 13:51:09 10° NNE 13:52:28 19° ENE 13:53:46 10° SE
Iridium 51 4.1 13:51:09 10° SSE 13:54:07 41° E 13:57:12 10° NNE
Cosmos 292 Rocket 3.8 13:50:26 10° SSW 13:55:14 87° WNW 14:00:04 10° NNE
Sich 1 Rocket 4.4 13:52:18 10° SSW 13:56:44 53° WNW 14:01:09 10° N
Cosmos 1743 3.0 13:54:36 10° N 13:57:35 31° ENE 14:00:31 10° SE
CBERS-1 4.0 13:53:00 10° SSE 13:58:06 76° ENE 14:03:14 10° NNW
CORIOLIS 4.2 13:54:03 10° SE 13:59:14 55° ENE 14:04:28 10° N
Okean 2 Rocket 4.3 13:57:41 10° SW 14:01:48 41° WNW 14:05:59 10° N
Cosmos 2227 Rocket 2.5 13:58:57 10° NNW 14:04:21 43° NE 14:09:44 10° ESE
NOSS 2-2 (D) 4.2 14:03:11 10° S 14:05:50 23° SE 14:07:49 13° ENE
Cosmos 1626 Rocket 3.5 14:02:14 10° N 14:06:34 69° ENE 14:10:52 10° SSE
MOS 1 Rocket 4.0 14:03:36 10° SE 14:08:07 37° ENE 14:12:53 10° N
IGS 5A 3.3 14:06:15 10° SSE 14:10:12 80° ENE 14:14:13 10° NNW
Cosmos 2084 3.4 14:06:09 10° SW 14:10:21 86° NW 14:13:57 14° NE
Cosmos 724 4.4 14:04:18 10° NW 14:10:27 89° NE 14:16:25 10° SE
Cosmos 2369 Rocket 3.0 14:05:29 10° WSW 14:10:55 46° NW 14:16:25 10° NNE
Cosmos 1943 Rocket 4.0 14:08:03 10° WNW 14:11:49 18° NNW 14:15:36 10° NNE
Cosmos 1900 4.3 14:07:33 10° NW 14:12:38 67° NE 14:17:36 10° SE
Intercosmos 24 3.7 14:09:06 10° N 14:13:19 81° ENE 14:16:52 10° SSE
Thor Agena Rocket 3.5 14:09:16 10° SSE 14:14:28 78° ENE 14:19:38 10° NNW
Cosmos 2084 Rocket 3.3 14:12:12 10° NW 14:16:26 84° NE 14:20:39 10° SE
NOSS 2-2 (E) 4.0 14:17:32 10° S 14:20:17 25° SE 14:21:45 17° E
Cosmos 2278 Rocket 4.0 14:17:13 10° WNW 14:21:06 18° NNW 14:25:00 10° NNE
SJ-12 4.0 14:17:57 10° SE 14:21:33 45° ENE 14:25:12 10° N
BlueWalker 3 4.3 14:19:17 10° W 14:22:12 23° SSW 14:25:06 10° SSE
Cosmos 1356 Rocket 3.5 14:20:32 10° SSW 14:24:36 80° WNW 14:28:43 10° NNE
Cosmos 1697 Rocket 3.9 14:20:42 10° SSE 14:24:49 21° ESE 14:27:16 16° ENE
IRS-1C 4.1 14:19:37 10° SSE 14:24:53 64° ENE 14:30:10 10° NNW
Meteor 1-28 Rocket 2.9 14:21:34 10° NNE 14:24:55 61° ESE 14:28:13 10° S
Cosmos 1634 Rocket 4.0 14:20:16 10° S 14:26:28 89° E 14:32:41 10° NNE
CZ-2D R/B 4.4 14:24:11 10° ESE 14:27:43 27° ENE 14:31:12 10° N
Cosmos 1544 Rocket 3.6 14:23:38 10° S 14:27:57 59° E 14:32:20 10° NNE
IRIDIUM 104 4.4 14:23:02 10° N 14:28:11 54° E 14:33:18 10° SSE
Cosmos 1655 Rocket 4.4 14:22:29 10° N 14:28:17 38° ENE 14:34:02 10° SE
Cosmos 1484 Rocket 3.7 14:28:06 10° S 14:31:30 46° W 14:34:54 10° NNW
CENTAUR R/B 2.7 14:25:57 10° SW 14:31:55 82° NW 14:38:16 15° NE
Okean 1-7 Rocket 3.7 14:28:36 10° N 14:32:55 50° ENE 14:37:11 10° SSE
Cosmos 405 Rocket 3.6 14:32:09 10° NNW 14:35:16 43° W 14:38:21 10° S
Meteor 1-20 Rocket 4.1 14:31:38 10° NNW 14:37:08 72° ENE 14:42:35 10° SSE
IRIDIUM 114 4.3 14:32:08 10° N 14:37:22 63° E 14:42:32 10° SSE
Lacrosse 5 rocket 1.0 14:37:04 10° WSW 14:40:50 85° SSE 14:42:46 26° ENE
Cosmos 2279 Rocket 3.9 14:34:57 10° S 14:41:10 82° E 14:47:27 10° NNE
Cosmos 1777 Rocket 4.4 14:36:32 10° S 14:41:28 43° ESE 14:44:59 18° NE
SJ-6F 4.3 14:40:20 10° SSE 14:44:14 58° ENE 14:48:12 10° N
Cosmos 1602 Rocket 3.5 14:40:31 10° NNW 14:44:58 88° E 14:49:20 10° S
Cosmos 1461 3.9 14:41:55 10° S 14:45:07 25° ESE 14:46:00 22° E
USA 281 4.5 14:43:31 18° NE 14:45:56 22° NNE 14:50:41 10° NNW
IRIDIUM 103 4.2 14:41:18 10° N 14:46:33 74° E 14:51:46 10° S
SAR-Lupe-5 4.5 14:47:29 20° NNE 14:49:26 85° ESE 14:52:33 10° SSW
Cosmos 2082 4.3 14:44:52 10° NNW 14:50:08 36° NE 14:53:17 21° E
NOSS 2-2 (C) 2.6 14:47:53 10° SW 14:50:58 78° NW 14:52:06 35° NE
ERS-1 4.4 14:47:05 10° SSE 14:52:06 84° ENE 14:57:06 10° NNW
Cosmos 1656 3.7 14:46:34 10° SSW 14:52:11 74° ESE 14:56:31 18° NE
USA 215 3.3 14:48:07 19° E 14:53:01 76° N 14:59:35 10° W
UNK 3.6 14:48:28 10° NNE 14:53:05 75° ESE 14:57:39 10° S
SMAP 3.5 14:48:31 10° S 14:53:09 66° WSW 14:57:49 10° NNW
NOSS 7 (H) 4.4 14:51:54 10° NW 14:54:48 64° SW 14:57:27 13° SE
Cosmos 1867 3.7 14:49:33 10° NW 14:55:01 76° SW 15:00:28 10° SE
Cosmos 2297 Rocket 3.0 14:51:51 10° NW 14:57:23 55° WSW 15:02:52 10° S
Cosmos 1486 Rocket 3.9 14:53:11 10° SSW 14:58:22 69° ESE 15:02:09 19° NNE
YAOGAN 1 2.9 14:54:29 10° SE 14:58:28 40° ENE 15:02:28 10° N
Cosmos 2180 Rocket 4.4 14:52:23 10° S 14:58:30 79° E 15:04:43 10° NNE
Landsat 7 4.0 14:54:00 10° S 14:58:38 74° WSW 15:03:20 10° NNW
Cosmos 2228 4.1 14:56:42 10° SW 15:00:46 44° WNW 15:04:53 10° N
CZ-4C R/B 3.3 14:55:53 10° NW 15:02:30 68° SW 15:10:49 10° SSE
SAR-Lupe-4 4.0 14:59:31 10° S 15:03:02 63° WSW 15:06:36 10° NNW
IRIDIUM 106 4.4 14:59:38 10° N 15:04:54 83° W 15:10:07 10° S
USA 290 4.2 15:03:42 10° NW 15:06:40 32° WSW 15:09:36 10° S
Cosmos 1953 Rocket 3.7 15:03:28 10° N 15:07:49 50° ENE 15:12:10 10° SSE
Resurs 01 Rocket 3.3 15:10:12 19° NNE 15:10:12 19° NNE 15:11:49 10° N
SJ-7 4.4 15:10:02 38° ESE 15:10:56 46° ENE 15:14:34 10° N
Meteor 1-25 Rocket 4.3 15:06:22 10° NNW 15:12:14 84° W 15:18:01 10° S
Cosmos 1782 3.4 15:09:46 10° SSW 15:13:17 49° WNW 15:16:25 12° N
Cosmos 2266 Rocket 4.1 15:07:11 10° NNW 15:13:22 75° W 15:19:25 10° S
BREEZE-M DEB (TANK) 3.8 15:10:27 10° WSW 15:13:31 43° S 15:19:47 15° ESE
USA 81 4.2 15:09:08 10° N 15:14:15 48° ENE 15:19:20 10° SSE
ATLAS CENTAUR R/B 4.0 15:12:22 10° W 15:14:17 15° WSW 15:16:11 10° SSW
Cosmos 2219 3.3 15:08:41 10° NNW 15:14:19 54° NE 15:17:39 24° ESE
IRS-P3 4.2 15:09:23 10° SSE 15:14:43 78° WSW 15:20:05 10° NNW
ARIANE 5 R/B 3.2 15:12:30 10° S 15:17:28 55° W 15:22:32 10° NNW
Cosmos 990 Rocket 4.2 15:13:46 10° S 15:18:36 44° ESE 15:19:49 37° ENE
Cosmos 1825 Rocket 3.5 15:14:22 10° NNW 15:18:45 85° W 15:23:05 10° S
Meteor 1-5 Rocket 4.0 15:14:43 10° NNW 15:20:04 80° ENE 15:25:29 10° SSE
CZ-2D R/B 4.2 15:17:09 10° S 15:20:08 39° W 15:23:08 10° NNW
Lacrosse 4 Rocket 2.9 15:18:19 10° W 15:21:52 28° NW 15:23:35 21° N
NOAA 6 4.1 15:17:03 10° SE 15:21:59 52° ENE 15:26:56 10° N
Cosmos 1680 Rocket 4.2 15:19:28 10° NNW 15:23:59 33° NE 15:23:59 33° NE
BREEZE-M DEB (TANK) 3.9 15:23:31 10° SSW 15:23:48 12° S 15:23:48 12° S
Cosmos 2098 Rocket 3.9 15:22:45 10° SSW 15:26:53 52° WNW 15:31:46 10° N
Cosmos 1980 Rocket 3.2 15:22:18 10° SSE 15:26:13 27° ESE 15:26:13 27° ESE
SPOT 1/Viking Rocket 3.5 15:21:52 10° SSE 15:27:05 87° WSW 15:32:21 10° NNW
Cosmos 2151 4.4 15:23:15 10° NNW 15:27:08 39° W 15:31:00 10° SSW
SL-16 R/B 3.4 15:22:44 10° N 15:28:40 48° WNW 15:34:33 10° SW
Cosmos 1844 Rocket 3.5 15:24:06 10° NNW 15:29:10 32° NE 15:29:20 32° NE
NOSS 3-2 (C) 3.2 15:28:32 10° SSW 15:33:41 65° SE 15:35:37 42° ENE
NOSS 3-2 (A) 3.4 15:28:33 10° WSW 15:33:51 74° NW 15:36:44 34° NE
Cosmos 44 Rocket 4.0 15:30:32 10° NW 15:35:17 38° NNE 15:35:34 38° NNE
Cosmos 2263 Rocket 2.1 15:30:21 10° NNW 15:36:04 90° WSW 15:41:20 12° SSE
GEOS 3 Rocket 3.7 15:38:33 37° NE 15:40:44 77° NW 15:46:08 10° WSW
Cosmos 1076 Rocket 3.8 15:44:11 10° NNW 15:48:28 67° W 15:52:44 10° S
Cosmos 2227 Rocket 3.0 15:43:05 10° NW 15:48:32 50° WSW 15:53:57 10° S
Cosmos 2084 4.5 15:45:39 10° W 15:49:27 33° NNW 15:49:40 32° N
Cosmos 1538 Rocket 4.1 15:45:48 10° NNW 15:51:04 78° WSW 15:55:59 12° SSE
NOSS 2-2 (D) 4.3 15:51:50 10° WSW 15:53:55 33° WNW 15:53:55 33° WNW
Cosmos 1933 3.9 15:51:13 10° SSW 15:54:58 52° WNW 15:55:44 44° NNW
Cosmos 1244 Rocket 4.3 15:49:14 10° N 15:55:34 78° ENE 16:01:49 10° SSE
Cosmos 2369 Rocket 4.1 15:52:17 10° WNW 15:56:22 20° NNW 15:58:46 16° N
Cosmos 1606 Rocket 4.0 15:52:06 10° SSW 15:56:28 61° WNW 15:58:22 32° N
Cosmos 1943 Rocket 4.0 15:54:32 10° NNW 15:57:49 16° N 15:57:50 16° N
SL-19 R/B 4.3 15:53:37 10° SSE 15:59:01 75° WSW 16:04:45 10° NNW
COSMO-SKYMED 1 4.0 16:02:54 27° S 16:02:54 27° S 16:04:48 10° S
PSLV R/B 3.7 15:59:50 36° S 16:01:19 64° WSW 16:05:22 10° NNW
CZ-2D R/B 4.4 15:58:23 10° S 16:02:27 47° W 16:06:29 10° NNW
Cosmos 1503 Rocket 4.4 15:58:53 10° SW 16:04:05 61° WNW 16:05:54 38° N
Meteor 2-20 4.3 15:58:51 10° S 16:05:01 89° E 16:10:01 17° NNE
Resurs 1-3 4.1 16:01:08 10° S 16:05:22 56° W 16:09:38 10° NNW
Cosmos 2278 Rocket 4.1 16:03:55 10° NNW 16:07:17 17° N 16:07:17 17° N
Cosmos 1697 Rocket 2.6 16:02:27 10° SSW 16:08:05 87° WNW 16:09:00 64° NNE
Cosmos 1354 Rocket 4.2 16:06:59 10° SW 16:12:15 71° WNW 16:13:15 56° N
SL-08 R/B 4.4 16:07:37 10° N 16:13:59 86° E 16:20:20 10° S
Lacrosse 5 rocket 2.9 16:14:20 10° W 16:16:22 29° WNW 16:16:22 29° WNW
Cosmos 1386 Rocket 4.3 16:14:35 10° N 16:20:16 72° NE 16:20:16 72° NE
Cosmos 1461 4.2 16:17:41 10° WSW 16:20:09 36° WSW 16:20:09 36° WSW
Cosmos 1726 Rocket 4.5 16:17:22 10° SSW 16:21:53 49° WNW 16:22:51 42° NW
SKYMED 2 4.3 16:22:23 52° WNW 16:22:23 52° WNW 16:26:28 10° SW
CENTAUR R/B 3.4 16:17:07 10° W 16:23:28 47° N 16:25:22 40° NNE
Meteor 2-20 Rocket 4.3 16:20:56 10° S 16:27:11 88° WNW 16:28:21 61° N
Cosmos 1844 4.4 16:21:39 10° NNW 16:25:30 40° N 16:25:30 40° N
USA 281 3.7 16:30:23 45° NNE 16:30:23 45° NNE 16:35:33 10° NNW
Cosmos 923 Rocket 4.4 16:28:07 10° NNW 16:32:21 57° NW 16:32:21 57° NW
USA 238 DEB 3.9 16:27:47 10° SSW 16:32:29 49° S 16:32:29 49° S
USA 238 3.9 16:27:53 10° SSW 16:32:34 49° S 16:32:34 49° S
YAOGAN 1 4.3 16:30:39 10° SSW 16:34:26 30° W 16:38:13 10° NNW
Cosmos 2082 4.0 16:28:57 10° NW 16:34:36 65° WSW 16:35:10 61° SSW
USA 215 3.1 16:35:29 74° SE 16:36:04 82° SSW 16:42:40 10° WNW
Resurs 01 Rocket 4.0 16:47:36 17° NNW 16:47:36 17° NNW 16:48:37 10° NNW
Cosmos 2219 4.4 16:53:04 10° NW 16:58:21 39° WSW 16:59:37 35° SW
Lacrosse 4 Rocket 4.3 16:58:49 10° NW 16:59:05 11° NW 16:59:05 11° NW
Cosmos 1980 Rocket 3.6 17:05:01 10° SW 17:08:01 32° SW 17:08:01 32° SW
Cosmos 1844 Rocket 4.1 17:07:56 10° NW 17:10:58 33° NW 17:10:58 33° NW
Cosmos 2263 Rocket 4.4 17:15:10 10° NW 17:19:16 21° WSW 17:23:09 11° SW
CENTAUR R/B 4.2 18:08:31 10° WNW 18:12:27 33° NW 18:12:27 33° NW
